TimeCDT,TemperatureF,Dew PointF,Humidity,Sea Level PressureIn,VisibilityMPH,Wind Direction,Wind SpeedMPH,Gust SpeedMPH,PrecipitationIn,Events,Conditions,WindDirDegrees,DateUTC
12:56 AM,61.9,57.9,87,30.14,10.0,South,5.8,-,N/A,,Clear,170,2012-10-05 05:56:00
1:56 AM,59.9,56.8,90,30.14,10.0,Calm,Calm,-,N/A,,Clear,0,2012-10-05 06:56:00
2:56 AM,61.0,57.9,90,30.13,10.0,Calm,Calm,-,N/A,,Clear,0,2012-10-05 07:56:00
3:56 AM,59.9,56.8,90,30.13,10.0,South,3.5,-,N/A,,Clear,170,2012-10-05 08:56:00
4:56 AM,59.9,57.9,93,30.14,9.0,NW,5.8,-,N/A,,Clear,310,2012-10-05 09:56:00
5:56 AM,57.9,55.9,93,30.14,7.0,Calm,Calm,-,N/A,,Clear,0,2012-10-05 10:56:00
6:56 AM,57.9,56.8,96,30.14,5.0,Calm,Calm,-,N/A,,Clear,0,2012-10-05 11:56:00
7:56 AM,59.9,57.9,93,30.12,4.0,South,4.6,-,N/A,,Clear,180,2012-10-05 12:56:00
8:56 AM,61.9,59.0,90,30.14,5.0,NNW,6.9,-,N/A,,Clear,330,2012-10-05 13:56:00
9:45 AM,62.6,57.2,82,30.15,7.0,North,8.1,-,N/A,,Mostly Cloudy,350,2012-10-05 14:45:00
9:56 AM,63.9,57.9,81,30.14,7.0,North,6.9,-,N/A,,Mostly Cloudy,10,2012-10-05 14:56:00
10:24 AM,64.4,57.2,77,30.14,7.0,Variable,4.6,-,N/A,,Scattered Clouds,0,2012-10-05 15:24:00
10:56 AM,65.8,57.9,76,30.14,7.0,NW,6.9,-,N/A,,Mostly Cloudy,320,2012-10-05 15:56:00
11:09 AM,66.2,57.2,73,30.13,7.0,Variable,3.5,-,N/A,,Scattered Clouds,0,2012-10-05 16:09:00
11:56 AM,68.0,57.9,70,30.12,6.0,Variable,4.6,-,N/A,,Haze,0,2012-10-05 16:56:00
12:56 PM,70.0,59.0,68,30.09,6.0,Calm,Calm,-,N/A,,Haze,0,2012-10-05 17:56:00
1:56 PM,72.9,59.9,64,30.04,7.0,Calm,Calm,-,N/A,,Scattered Clouds,0,2012-10-05 18:56:00
2:56 PM,75.9,61.9,62,30.03,10.0,NW,8.1,-,N/A,,Partly Cloudy,310,2012-10-05 19:56:00
3:56 PM,72.0,59.0,64,29.99,7.0,North,8.1,-,N/A,,Partly Cloudy,360,2012-10-05 20:56:00
4:56 PM,68.9,57.9,68,29.97,10.0,NNW,8.1,-,N/A,,Mostly Cloudy,340,2012-10-05 21:56:00
5:56 PM,57.9,52.0,81,30.04,8.0,NW,17.3,25.3,N/A,,Overcast,320,2012-10-05 22:56:00
6:35 PM,53.6,51.8,94,30.03,10.0,North,15.0,-,0.00,,Overcast,350,2012-10-05 23:35:00
6:47 PM,53.6,50.0,88,30.03,8.0,North,13.8,-,0.00,,Overcast,350,2012-10-05 23:47:00
6:56 PM,52.9,48.9,86,30.05,8.0,NNW,17.3,25.3,0.00,,Overcast,330,2012-10-05 23:56:00
7:56 PM,48.9,45.0,86,30.09,10.0,North,12.7,-,0.00,Rain,Light Rain,350,2012-10-06 00:56:00
8:56 PM,47.8,45.0,90,30.09,10.0,North,10.4,-,0.01,Rain,Light Rain,360,2012-10-06 01:56:00
9:16 PM,48.2,46.4,93,30.10,10.0,NNW,10.4,-,0.00,Rain,Light Rain,340,2012-10-06 02:16:00
9:56 PM,45.9,43.9,93,30.13,9.0,NNW,13.8,20.7,0.01,Rain,Light Rain,340,2012-10-06 02:56:00
10:45 PM,44.6,42.8,93,30.09,8.0,ENE,11.5,-,0.03,Rain,Light Rain,60,2012-10-06 03:45:00
10:56 PM,45.0,41.9,89,30.16,4.0,NNW,12.7,-,0.05,Rain,Rain,340,2012-10-06 03:56:00
11:03 PM,44.6,42.8,93,30.14,2.0,NNW,10.4,-,0.03,Rain,Heavy Rain,340,2012-10-06 04:03:00
11:09 PM,44.6,42.8,93,30.14,3.0,North,10.4,-,0.04,Rain,Rain,360,2012-10-06 04:09:00
11:26 PM,44.6,42.8,93,30.13,6.0,North,10.4,-,0.05,Rain,Light Rain,360,2012-10-06 04:26:00
11:34 PM,44.6,42.8,93,30.14,6.0,North,11.5,-,0.05,Rain,Light Rain,350,2012-10-06 04:34:00
11:56 PM,43.9,43.0,97,30.14,3.0,North,9.2,-,0.10,Rain,Rain,360,2012-10-06 04:56:00